EN

Hourly Weather Novosubhangulovo

Today, 16 May, Sunday

Time Temperature Precipitation Wind Pressure Humidity
00:00 +16°C° 0 mm 0 mps 735 mmHg 71%
01:00 +16°C° 0 mm 0 mps 735 mmHg 72%
02:00 +15°C° 0 mm 0 mps 735 mmHg 72%
03:00 +15°C° 0 mm 0 mps 735 mmHg 72%
04:00 +15°C° 0 mm 0 mps 736 mmHg 72%
05:00 +17°C° 0 mm 0 mps 736 mmHg 67%
06:00 +19°C° 0 mm 0 mps 736 mmHg 61%
07:00 +21°C° 0 mm 0 mps 736 mmHg 55%
08:00 +23°C° 0 mm 0 mps 736 mmHg 47%
09:00 +27°C° 0 mm 1 mps 736 mmHg 39%
10:00 +30°C° 0 mm 1 mps 736 mmHg 31%
11:00 +30°C° 0 mm 1 mps 736 mmHg 29%
12:00 +31°C° 0 mm 1 mps 736 mmHg 27%
13:00 +31°C° 0 mm 2 mps 735 mmHg 25%
14:00 +30°C° 0 mm 2 mps 735 mmHg 28%
15:00 +29°C° 0 mm 2 mps 735 mmHg 32%
16:00 +28°C° 0 mm 2 mps 735 mmHg 35%
17:00 +26°C° 0.1 mm 1 mps 735 mmHg 44%
18:00 +24°C° 0.1 mm 1 mps 735 mmHg 53%
19:00 +20°C° 0.1 mm 0 mps 735 mmHg 62%
20:00 +19°C° 0 mm 0 mps 735 mmHg 63%
21:00 +18°C° 0 mm 0 mps 735 mmHg 63%
22:00 +17°C° 0 mm 0 mps 734 mmHg 63%
23:00 +16°C° 0 mm 0 mps 734 mmHg 63%

Tomorrow, 17 May, Monday

Time Temperature Precipitation Wind Pressure Humidity
00:00 +16°C° 0 mm 0 mps 734 mmHg 64%
01:00 +16°C° 0 mm 1 mps 734 mmHg 65%
02:00 +16°C° 0 mm 1 mps 735 mmHg 65%
03:00 +16°C° 0 mm 1 mps 735 mmHg 66%
04:00 +15°C° 0 mm 0 mps 735 mmHg 66%
05:00 +17°C° 0 mm 0 mps 735 mmHg 61%
06:00 +19°C° 0 mm 0 mps 735 mmHg 56%
07:00 +21°C° 0 mm 0 mps 735 mmHg 51%
08:00 +25°C° 0 mm 1 mps 735 mmHg 44%
09:00 +27°C° 0 mm 2 mps 735 mmHg 37%
10:00 +29°C° 0 mm 2 mps 735 mmHg 31%
11:00 +29°C° 0 mm 3 mps 735 mmHg 30%
12:00 +29°C° 0 mm 3 mps 735 mmHg 30%
13:00 +30°C° 0 mm 3 mps 735 mmHg 29%
14:00 +30°C° 0 mm 4 mps 734 mmHg 29%
15:00 +30°C° 0 mm 4 mps 734 mmHg 29%
16:00 +30°C° 0 mm 4 mps 734 mmHg 29%
17:00 +27°C° 0.1 mm 3 mps 734 mmHg 37%
18:00 +25°C° 0.1 mm 2 mps 734 mmHg 46%
19:00 +23°C° 0.1 mm 1 mps 734 mmHg 54%
20:00 +22°C° 0 mm 1 mps 734 mmHg 55%
21:00 +19°C° 0 mm 0 mps 734 mmHg 56%
22:00 +18°C° 0 mm 0 mps 734 mmHg 56%
23:00 +17°C° 0 mm 0 mps 734 mmHg 58%

Day after tomorrow, 18 May, Tuesday

Time Temperature Precipitation Wind Pressure Humidity
00:00 +17°C° 0 mm 0 mps 733 mmHg 59%
01:00 +16°C° 0 mm 0 mps 733 mmHg 61%
02:00 +16°C° 0 mm 0 mps 733 mmHg 63%
03:00 +15°C° 0 mm 0 mps 733 mmHg 65%
04:00 +15°C° 0 mm 0 mps 733 mmHg 67%
05:00 +17°C° 0 mm 0 mps 733 mmHg 62%
06:00 +19°C° 0 mm 0 mps 733 mmHg 58%
07:00 +21°C° 0 mm 0 mps 733 mmHg 53%
08:00 +23°C° 0 mm 0 mps 733 mmHg 46%
09:00 +27°C° 0 mm 1 mps 733 mmHg 40%
10:00 +29°C° 0 mm 1 mps 733 mmHg 33%
11:00 +30°C° 0 mm 1 mps 733 mmHg 30%
12:00 +30°C° 0 mm 2 mps 732 mmHg 27%
13:00 +31°C° 0 mm 2 mps 732 mmHg 25%
14:00 +30°C° 0 mm 2 mps 732 mmHg 28%
15:00 +29°C° 0 mm 2 mps 732 mmHg 30%
16:00 +29°C° 0 mm 3 mps 732 mmHg 33%
17:00 +27°C° 0 mm 2 mps 732 mmHg 39%
18:00 +26°C° 0 mm 2 mps 732 mmHg 44%
19:00 +25°C° 0 mm 2 mps 732 mmHg 50%
20:00 +23°C° 0 mm 1 mps 732 mmHg 57%
21:00 +21°C° 0 mm 1 mps 732 mmHg 63%
22:00 +19°C° 0 mm 1 mps 732 mmHg 70%
23:00 +19°C° 0 mm 1 mps 732 mmHg 73%

19 May, Wednesday

Time Temperature Precipitation Wind Pressure Humidity
00:00 +18°C° 0 mm 1 mps 732 mmHg 76%
01:00 +16°C° 0 mm 1 mps 732 mmHg 80%
02:00 +16°C° 0 mm 1 mps 732 mmHg 78%
03:00 +16°C° 0 mm 1 mps 732 mmHg 77%
04:00 +15°C° 0 mm 2 mps 732 mmHg 75%
05:00 +16°C° 0 mm 2 mps 733 mmHg 70%
06:00 +17°C° 0 mm 3 mps 733 mmHg 65%
07:00 +18°C° 0 mm 4 mps 733 mmHg 60%
08:00 +19°C° 0 mm 4 mps 733 mmHg 56%
09:00 +21°C° 0 mm 4 mps 734 mmHg 53%
10:00 +22°C° 0 mm 5 mps 734 mmHg 49%
11:00 +22°C° 0 mm 5 mps 734 mmHg 46%
12:00 +23°C° 0 mm 4 mps 734 mmHg 42%
13:00 +25°C° 0 mm 4 mps 734 mmHg 39%
14:00 +25°C° 0 mm 4 mps 734 mmHg 38%
15:00 +25°C° 0 mm 4 mps 734 mmHg 37%
16:00 +25°C° 0 mm 4 mps 734 mmHg 35%
17:00 +24°C° 0 mm 3 mps 735 mmHg 40%
18:00 +21°C° 0 mm 3 mps 735 mmHg 45%
19:00 +20°C° 0 mm 3 mps 735 mmHg 50%
20:00 +18°C° 0 mm 2 mps 735 mmHg 54%
21:00 +16°C° 0 mm 2 mps 735 mmHg 59%
22:00 +15°C° 0 mm 2 mps 735 mmHg 63%
23:00 +14°C° 0 mm 1 mps 735 mmHg 65%

20 May, Thursday

Time Temperature Precipitation Wind Pressure Humidity
00:00 +13°C° 0 mm 1 mps 736 mmHg 67%
01:00 +12°C° 0 mm 1 mps 736 mmHg 69%
02:00 +12°C° 0 mm 1 mps 736 mmHg 70%
03:00 +11°C° 0 mm 1 mps 736 mmHg 70%
04:00 +10°C° 0 mm 1 mps 737 mmHg 71%
05:00 +12°C° 0 mm 1 mps 737 mmHg 64%
06:00 +15°C° 0 mm 2 mps 737 mmHg 57%
07:00 +17°C° 0 mm 2 mps 737 mmHg 50%
08:00 +18°C° 0 mm 2 mps 737 mmHg 45%
09:00 +20°C° 0 mm 3 mps 737 mmHg 39%
10:00 +22°C° 0 mm 3 mps 737 mmHg 34%
11:00 +24°C° 0 mm 3 mps 737 mmHg 31%
12:00 +25°C° 0 mm 3 mps 737 mmHg 29%
13:00 +26°C° 0 mm 3 mps 737 mmHg 26%
14:00 +26°C° 0 mm 3 mps 737 mmHg 26%
15:00 +26°C° 0 mm 3 mps 736 mmHg 26%
16:00 +26°C° 0 mm 3 mps 736 mmHg 26%
17:00 +25°C° 0 mm 3 mps 736 mmHg 35%
18:00 +23°C° 0 mm 2 mps 736 mmHg 43%
19:00 +20°C° 0 mm 2 mps 736 mmHg 51%
20:00 +19°C° 0 mm 1 mps 736 mmHg 57%
21:00 +16°C° 0 mm 1 mps 736 mmHg 62%
22:00 +14°C° 0 mm 1 mps 736 mmHg 68%
23:00 +14°C° 0 mm 1 mps 736 mmHg 68%

21 May, Friday

Time Temperature Precipitation Wind Pressure Humidity
00:00 +13°C° 0 mm 1 mps 736 mmHg 68%
01:00 +13°C° 0 mm 1 mps 736 mmHg 68%
02:00 +13°C° 0 mm 1 mps 736 mmHg 66%
03:00 +13°C° 0 mm 1 mps 736 mmHg 65%
04:00 +12°C° 0 mm 1 mps 736 mmHg 63%
05:00 +14°C° 0 mm 1 mps 737 mmHg 57%
06:00 +16°C° 0 mm 1 mps 737 mmHg 52%
07:00 +19°C° 0 mm 1 mps 737 mmHg 46%
08:00 +20°C° 0 mm 2 mps 737 mmHg 40%
09:00 +23°C° 0 mm 2 mps 737 mmHg 34%
10:00 +25°C° 0 mm 3 mps 737 mmHg 28%
11:00 +26°C° 0 mm 3 mps 737 mmHg 27%
12:00 +27°C° 0 mm 3 mps 737 mmHg 25%
13:00 +28°C° 0 mm 3 mps 737 mmHg 24%
14:00 +28°C° 0 mm 3 mps 737 mmHg 25%
15:00 +27°C° 0 mm 3 mps 737 mmHg 26%
16:00 +27°C° 0 mm 3 mps 736 mmHg 27%
17:00 +25°C° 0 mm 3 mps 736 mmHg 35%
18:00 +24°C° 0 mm 2 mps 736 mmHg 44%
19:00 +22°C° 0 mm 1 mps 736 mmHg 52%
20:00 +20°C° 0 mm 1 mps 736 mmHg 56%
21:00 +18°C° 0 mm 1 mps 736 mmHg 59%
22:00 +16°C° 0 mm 1 mps 736 mmHg 62%
23:00 +15°C° 0 mm 1 mps 736 mmHg 62%
Show more

We Need Your Consent

Meteoprog and our Service Providers may store and access personal data such as cookies, device identifiers or other similar technologies on your device and process such data to personalise content and ads, as well as provide social media features and to analyse the traffic.

  • Store and/or access information on your device

    Cookies, device identifiers or other information can be stored or accessed on your device for the purposes indicated above.

  • Personalised ads and content, ad and content measurement, audience insights, and products development

    Ads and content can be personalised based on a profile. More data can be added to better personalise ads and content. Ad and content performance can be measured. Insights about the audience who saw the ads and content can be derived. Such data can be used to develop or improve user’s experience, systems and software.

By clicking ‘I Agree’ you will allow the use of indicated cookies, device identifiers, web beacons or other similar technologies. Your settings can be changed in the browser on your device.

For certain purposes, legitimate interests may be relied on, rather than consent. You can read more about this in our Privacy and Cookie Policy.